Regional Weather Roundup
Issued by NWS

Home | Current Version | Previous Version | Graphics & Text | Print | Product List | Glossary Off
Versions: 1 2 3 4 5 6 7 8 9 10 11 12 13 14 15 16 17 18 19 20 21 22 23 24 25 26 27 28 29 30 31 32 33 34 35 36 37 38 39 40 41 42 43 44 45 46 47 48 49 50

000
ASUS43 KTOP 272208
RWRKS

WEATHER ROUNDUP FOR KANSAS
NATIONAL WEATHER SERVICE GOODLAND KS
500 PM CDT FRI MAR 27 2015

NOTE:  "FAIR" INDICATES FEW OR NO CLOUDS BELOW 12,000 FEET WITH NO
SIGNIFICANT WEATHER AND/OR OBSTRUCTIONS TO VISIBILITY.

KSZ001>006-013>018-027>032-041>047-272300-
NORTHWEST KANSAS

CITY           SKY/WX    TMP DP  RH WIND       PRES   REMARKS
GOODLAND       PTSUNNY   66  34  30 N10       30.01F
HAYS           MOSUNNY   55  30  38 SW13G18   30.09F
HILL CITY      SUNNY     57  35  43 SW12G23   30.04F
RUSSELL        PTSUNNY   53  29  39 SW13      30.08F
$$

KSZ061>065-074>080-084>089-272300-
SOUTHWEST KANSAS

CITY           SKY/WX    TMP DP  RH WIND       PRES   REMARKS
DODGE CITY     SUNNY     60  33  36 SW14      30.09F
ELKHART          N/A     68  37  32 SW2         N/A
GARDEN CITY    SUNNY     62  34  35 SW13G21   30.06F
GREAT BEND     MOSUNNY   54  30  40 SW10G16   30.10F
LIBERAL        SUNNY     64  36  34 W13G18    30.10F
PRATT          MOSUNNY   52  32  46 SW8G16    30.13F
$$

KSZ066>073-081>083-090>101-272300-
SOUTHEAST KANSAS

CITY           SKY/WX    TMP DP  RH WIND       PRES   REMARKS
CHANUTE        SUNNY     51  23  33 N8        30.14F
COFFEYVILLE    SUNNY     50  24  36 W6        30.15F
HUTCHINSON     CLOUDY    50  28  42 W6        30.13F
MEDICINE LODGE   N/A     54  29  38 SW9       30.12F
NEWTON         CLOUDY    46  25  42 CALM      30.15F
PARSONS        SUNNY     51  24  34 VRB5      30.16F
WICHITA INTL   CLOUDY    50  28  42 W8        30.14F
WICHITA JABRA  CLOUDY    49  26  41 VRB6      30.14F
WICHITA MCCONL PTSUNNY   51  27  39 W8        30.14F
WINFIELD       CLOUDY    51  25  36 W5        30.16F
$$

KSZ007>012-019>026-033>040-048>060-102>105-272300-
NORTHEAST KANSAS

CITY           SKY/WX    TMP DP  RH WIND       PRES   REMARKS
CONCORDIA      CLOUDY    44  22  41 VRB6      30.13F
EMPORIA        CLOUDY    46  18  32 VRB5      30.13F
LAWRENCE       PTSUNNY   43  19  38 NW6       30.16S
MANHATTAN      CLOUDY    46  16  30 VRB3      30.15F
MARYSVILLE     CLOUDY    41  21  45 W6        30.16S
OLATHE IND     PTSUNNY   43  18  36 CALM      30.15F
OLATHE EXE     MOSUNNY   43  17  35 VRB3      30.13F
SALINA         CLOUDY    48  24  39 VRB5      30.14F
TOPEKA BILLARD CLOUDY    44  18  35 CALM      30.16F
TOPEKA FORBES  CLOUDY    45  17  32 VRB3      30.15F
$$


USA.gov is the U.S. government's official web portal to all federal, state and local government web resources and services.